Greer, SC

8:35 AM EST on January 23, 2017 (GMT -0500)
Greenville-Spartanburg International

Weather History for KGSP - April, 2014

Change the Weather History Date:

Wednesday, April 30, 2014

  Actual Average Record
Temperature  
Mean Temperature 66 °F 64 °F  
Max Temperature 74 °F 76 °F 91 °F (1987)
Min Temperature 57 °F 52 °F 39 °F (1980)
Degree Days  
Heating Degree Days 0 3  
Month to date heating degree days 136 173  
Since 1 July heating degree days 3172 3006  
Cooling Degree Days 1 2  
Month to date cooling degree days 42 40  
Year to date cooling degree days 42 48  
Growing Degree Days 15 (Base 50)    
Moisture  
Dew Point 59 °F    
Average Humidity 82    
Maximum Humidity 100    
Minimum Humidity 64    
Precipitation  
Precipitation 0.18 in 0.11 in 1.86 in (1953)
Month to date precipitation 5.05 3.36  
Year to date precipitation 15.38 15.67  
Snow  
Snow 0.00 in 0.00 in 0.00 in ()
Month to date snowfall 0.0 T  
Since 1 July snowfall 7.2 4.7  
Snow Depth 0.00 in    
Sea Level Pressure  
Sea Level Pressure 29.91 in    
Wind  
Wind Speed 9 mph (NE)    
Max Wind Speed 22 mph    
Max Gust Speed 28 mph    
Visibility 6 miles    
Events Fog , Rain    
T = Trace of Precipitation, MM = Missing Value Source: NWS Daily Summary

Daily Weather History Graph

Daily Weather History Graph

Search for Another Location

Airport or City:

Trip Planner

Search our weather history database for the weather conditions in past years. The results will help you decide how hot, cold, wet, or windy it might be!

Date:

Astronomy

Apr. 30, 2014 Rise Set
Actual Time 6:39 AM EDT 8:13 PM EDT
Civil Twilight 6:12 AM EDT 8:40 PM EDT
Nautical Twilight 5:40 AM EDT 9:12 PM EDT
Astronomical Twilight 5:06 AM EDT 9:47 PM EDT
Moon 7:40 AM EDT (4/30) 9:49 PM EDT (4/30)
Length of Visible Light 14h 28m
Length of Day
13h 34m
New Moon, 2% of the Moon is Illuminated
Apr 30
New Moon
May 6
First Quarter
May 14
Full
May 21
Last Quarter
May 28
New

Hourly Weather History & Observations

Time (EDT) Temp. Dew Point Humidity Pressure Visibility Wind Dir Wind Speed Gust Speed Precip Events Conditions
12:53 AM 59.0 °F 57.0 °F 93% 29.96 in 5.0 mi NNE 5.8 mph - N/A   Overcast
1:53 AM 59.0 °F 57.0 °F 93% 29.96 in 4.0 mi NE 6.9 mph - N/A   Overcast
2:21 AM 57.9 °F 57.0 °F 97% 29.97 in 2.5 mi NE 8.1 mph - N/A   Overcast
2:43 AM 57.9 °F 57.0 °F 97% 29.97 in 3.0 mi NNE 5.8 mph - N/A   Overcast
2:53 AM 57.9 °F 57.0 °F 97% 29.95 in 4.0 mi North 3.5 mph - 0.00 in Rain Light Rain
3:11 AM 57.9 °F 57.0 °F 97% 29.95 in 2.5 mi North 6.9 mph - 0.03 in Rain Rain
3:19 AM 57.9 °F 57.0 °F 97% 29.96 in 4.0 mi North 5.8 mph - 0.03 in Rain Light Rain
3:37 AM 57.9 °F 57.0 °F 97% 29.94 in 2.0 mi NE 6.9 mph - 0.18 in Rain Light Rain
3:46 AM 57.9 °F 57.0 °F 97% 29.93 in 7.0 mi ENE 5.8 mph - 0.18 in   Overcast
3:53 AM 57.9 °F 57.0 °F 97% 29.89 in 8.0 mi ENE 6.9 mph - 0.18 in   Overcast
4:53 AM 57.9 °F 57.0 °F 97% 29.90 in 5.0 mi NE 5.8 mph - N/A   Overcast
5:14 AM 57.9 °F 57.0 °F 97% 29.93 in 2.5 mi NE 8.1 mph - N/A   Overcast
5:53 AM 57.9 °F 57.0 °F 97% 29.90 in 3.0 mi NNE 5.8 mph - N/A   Overcast
6:34 AM 57.0 °F 57.0 °F 100% 29.92 in 2.5 mi NNE 9.2 mph - N/A   Overcast
6:53 AM 57.9 °F 57.0 °F 97% 29.90 in 1.0 mi NE 8.1 mph - N/A   Mist
7:37 AM 57.9 °F 57.0 °F 97% 29.92 in 0.8 mi NNE 6.9 mph - N/A   Mist
7:53 AM 57.0 °F 57.0 °F 100% 29.89 in 0.5 mi NE 8.1 mph - N/A Fog Fog
8:53 AM 57.9 °F 57.9 °F 100% 29.92 in 0.5 mi NNE 6.9 mph - N/A Fog Fog
9:49 AM 59.0 °F 57.2 °F 94% 29.96 in 1.2 mi WNW 5.8 mph - 0.00 in Rain Light Rain
9:53 AM 59.0 °F 57.9 °F 96% 29.94 in 0.5 mi NW 4.6 mph - 0.00 in Fog , Rain Light Rain
10:11 AM 60.1 °F 59.0 °F 96% 29.94 in 2.0 mi NE 3.5 mph - 0.00 in   Overcast
10:21 AM 60.1 °F 59.0 °F 96% 29.93 in 0.8 mi North 4.6 mph - 0.00 in   Overcast
10:53 AM 62.6 °F 60.8 °F 94% 29.92 in 3.0 mi East 4.6 mph - N/A   Overcast
11:00 AM 62.1 °F 61.0 °F 96% 29.92 in 10.0 mi ENE 4.6 mph - N/A   Partly Cloudy
11:53 AM 66.0 °F 62.1 °F 87% 29.89 in 10.0 mi North 5.8 mph - N/A   Clear
12:53 PM 69.1 °F 63.0 °F 81% 29.89 in 10.0 mi SSE 5.8 mph - N/A   Clear
1:53 PM 73.0 °F 61.0 °F 66% 29.87 in 10.0 mi SSW 17.3 mph 24.2 mph N/A   Clear
2:53 PM 73.0 °F 61.0 °F 66% 29.86 in 10.0 mi SSW 15.0 mph - N/A   Partly Cloudy
3:53 PM 73.0 °F 60.1 °F 64% 29.86 in 10.0 mi SW 12.7 mph 24.2 mph N/A   Mostly Cloudy
4:53 PM 73.9 °F 60.1 °F 62% 29.87 in 10.0 mi SW 15.0 mph 23.0 mph N/A   Overcast
5:53 PM 72.0 °F 60.1 °F 66% 29.86 in 10.0 mi SW 16.1 mph - N/A   Overcast
6:53 PM 71.1 °F 60.1 °F 68% 29.85 in 10.0 mi SW 13.8 mph 19.6 mph N/A   Overcast
7:53 PM 70.0 °F 61.0 °F 73% 29.86 in 10.0 mi South 10.4 mph - N/A   Overcast
8:21 PM 70.0 °F 61.0 °F 73% 29.89 in 10.0 mi South 11.5 mph - N/A   Overcast
8:53 PM 70.0 °F 61.0 °F 73% 29.87 in 10.0 mi SSW 12.7 mph - N/A   Overcast
9:53 PM 69.1 °F 61.0 °F 75% 29.88 in 10.0 mi South 8.1 mph - N/A   Overcast
10:50 PM 68.0 °F 62.6 °F 83% 29.91 in 10.0 mi South 9.2 mph - N/A   Overcast
10:53 PM 68.0 °F 62.1 °F 81% 29.89 in 10.0 mi South 8.1 mph - N/A   Overcast
11:43 PM 68.0 °F 62.1 °F 81% 29.90 in 10.0 mi SSW 10.4 mph - N/A   Overcast
11:53 PM 68.0 °F 62.1 °F 81% 29.88 in 10.0 mi SSW 12.7 mph - N/A   Overcast